When you browse on this site, cookies collect data to enhance your experience and personalize the content and advertising you see.
Visit our Privacy Policy to learn more. By continuing to use the site, you agree to this use of cookies and data.

Stündliche Wetter Bern

Heute, 5 Juli, Sonntag

Zeit Temperatur Niederschläge Wind Luftdruck Luftfeuchtigkeit
00:00 +15°C° 0 mm 1 m/S 719 mmHg 88%
01:00 +15°C° 0 mm 1 m/S 719 mmHg 88%
02:00 +15°C° 0 mm 1 m/S 719 mmHg 88%
03:00 +14°C° 0 mm 1 m/S 718 mmHg 87%
04:00 +16°C° 0 mm 1 m/S 718 mmHg 83%
05:00 +18°C° 0 mm 1 m/S 718 mmHg 79%
06:00 +19°C° 0 mm 1 m/S 718 mmHg 76%
07:00 +21°C° 0 mm 1 m/S 719 mmHg 71%
08:00 +23°C° 0 mm 1 m/S 719 mmHg 66%
09:00 +24°C° 0 mm 2 m/S 719 mmHg 62%
10:00 +25°C° 0 mm 2 m/S 719 mmHg 61%
11:00 +26°C° 0 mm 2 m/S 718 mmHg 60%
12:00 +27°C° 0 mm 3 m/S 718 mmHg 59%
13:00 +27°C° 0 mm 3 m/S 718 mmHg 59%
14:00 +27°C° 0 mm 3 m/S 718 mmHg 59%
15:00 +28°C° 0 mm 2 m/S 718 mmHg 60%
16:00 +27°C° 0 mm 2 m/S 717 mmHg 66%
17:00 +26°C° 0 mm 2 m/S 717 mmHg 72%
18:00 +25°C° 0 mm 1 m/S 717 mmHg 78%
19:00 +23°C° 0 mm 1 m/S 717 mmHg 83%
20:00 +21°C° 0 mm 1 m/S 717 mmHg 88%
21:00 +19°C° 0 mm 1 m/S 717 mmHg 93%
22:00 +19°C° 0 mm 1 m/S 717 mmHg 94%
23:00 +18°C° 0 mm 1 m/S 717 mmHg 94%

Morgen, 6 Juli, Montag

Zeit Temperatur Niederschläge Wind Luftdruck Luftfeuchtigkeit
00:00 +18°C° 0 mm 1 m/S 717 mmHg 95%
01:00 +16°C° 0 mm 1 m/S 717 mmHg 95%
02:00 +16°C° 0 mm 1 m/S 716 mmHg 95%
03:00 +16°C° 0 mm 1 m/S 716 mmHg 95%
04:00 +18°C° 0 mm 1 m/S 716 mmHg 92%
05:00 +19°C° 0 mm 1 m/S 716 mmHg 90%
06:00 +20°C° 0 mm 1 m/S 716 mmHg 87%
07:00 +20°C° 0.1 mm 1 m/S 716 mmHg 84%
08:00 +20°C° 0.1 mm 2 m/S 716 mmHg 80%
09:00 +21°C° 0.1 mm 3 m/S 717 mmHg 76%
10:00 +21°C° 0.2 mm 3 m/S 716 mmHg 75%
11:00 +21°C° 0.2 mm 3 m/S 716 mmHg 73%
12:00 +21°C° 0.2 mm 3 m/S 716 mmHg 71%
13:00 +21°C° 0.1 mm 3 m/S 716 mmHg 72%
14:00 +20°C° 0.1 mm 2 m/S 716 mmHg 72%
15:00 +19°C° 0.1 mm 2 m/S 716 mmHg 72%
16:00 +18°C° 0.1 mm 2 m/S 716 mmHg 73%
17:00 +18°C° 0.1 mm 2 m/S 717 mmHg 75%
18:00 +17°C° 0.1 mm 2 m/S 717 mmHg 76%
19:00 +15°C° 0 mm 2 m/S 717 mmHg 80%
20:00 +14°C° 0 mm 1 m/S 718 mmHg 85%
21:00 +12°C° 0 mm 1 m/S 718 mmHg 89%
22:00 +12°C° 0 mm 1 m/S 718 mmHg 90%
23:00 +11°C° 0 mm 1 m/S 718 mmHg 92%

übermorgen, 7 Juli, Dienstag

Zeit Temperatur Niederschläge Wind Luftdruck Luftfeuchtigkeit
00:00 +10°C° 0 mm 1 m/S 718 mmHg 94%
01:00 +10°C° 0 mm 1 m/S 718 mmHg 94%
02:00 +10°C° 0 mm 1 m/S 718 mmHg 94%
03:00 +10°C° 0 mm 1 m/S 717 mmHg 95%
04:00 +11°C° 0 mm 1 m/S 717 mmHg 91%
05:00 +12°C° 0 mm 2 m/S 718 mmHg 87%
06:00 +13°C° 0 mm 2 m/S 718 mmHg 83%
07:00 +14°C° 0 mm 3 m/S 718 mmHg 74%
08:00 +17°C° 0 mm 3 m/S 717 mmHg 65%
09:00 +18°C° 0 mm 3 m/S 717 mmHg 56%
10:00 +20°C° 0 mm 3 m/S 717 mmHg 53%
11:00 +21°C° 0 mm 3 m/S 717 mmHg 50%
12:00 +22°C° 0 mm 3 m/S 717 mmHg 47%
13:00 +22°C° 0 mm 3 m/S 717 mmHg 47%
14:00 +24°C° 0 mm 3 m/S 717 mmHg 46%
15:00 +24°C° 0 mm 3 m/S 717 mmHg 46%
16:00 +23°C° 0 mm 2 m/S 717 mmHg 54%
17:00 +21°C° 0 mm 2 m/S 717 mmHg 61%
18:00 +21°C° 0 mm 1 m/S 717 mmHg 69%
19:00 +19°C° 0 mm 1 m/S 717 mmHg 75%
20:00 +15°C° 0 mm 1 m/S 717 mmHg 81%
21:00 +13°C° 0 mm 1 m/S 717 mmHg 87%
22:00 +13°C° 0 mm 1 m/S 717 mmHg 86%
23:00 +13°C° 0 mm 1 m/S 717 mmHg 85%

8 Juli, Mittwoch

Zeit Temperatur Niederschläge Wind Luftdruck Luftfeuchtigkeit
00:00 +12°C° 0 mm 1 m/S 716 mmHg 85%
01:00 +12°C° 0 mm 1 m/S 716 mmHg 84%
02:00 +11°C° 0 mm 0 m/S 716 mmHg 84%
03:00 +11°C° 0 mm 0 m/S 716 mmHg 84%
04:00 +12°C° 0 mm 0 m/S 716 mmHg 81%
05:00 +14°C° 0 mm 0 m/S 717 mmHg 77%
06:00 +15°C° 0 mm 0 m/S 717 mmHg 73%
07:00 +17°C° 0 mm 0 m/S 717 mmHg 67%
08:00 +19°C° 0 mm 0 m/S 717 mmHg 60%
09:00 +24°C° 0 mm 1 m/S 718 mmHg 53%
10:00 +25°C° 0 mm 1 m/S 718 mmHg 48%
11:00 +26°C° 0 mm 1 m/S 718 mmHg 44%
12:00 +27°C° 0 mm 1 m/S 718 mmHg 39%
13:00 +27°C° 0 mm 1 m/S 717 mmHg 40%
14:00 +27°C° 0 mm 1 m/S 717 mmHg 40%
15:00 +27°C° 0 mm 1 m/S 717 mmHg 41%
16:00 +26°C° 0 mm 1 m/S 717 mmHg 50%
17:00 +24°C° 0 mm 1 m/S 717 mmHg 59%
18:00 +23°C° 0 mm 1 m/S 717 mmHg 68%
19:00 +21°C° 0 mm 1 m/S 717 mmHg 73%
20:00 +19°C° 0 mm 1 m/S 717 mmHg 77%
21:00 +16°C° 0 mm 1 m/S 717 mmHg 82%
22:00 +15°C° 0 mm 1 m/S 717 mmHg 83%
23:00 +15°C° 0 mm 1 m/S 717 mmHg 83%

9 Juli, Donnerstag

Zeit Temperatur Niederschläge Wind Luftdruck Luftfeuchtigkeit
00:00 +14°C° 0 mm 1 m/S 717 mmHg 84%
01:00 +14°C° 0 mm 1 m/S 717 mmHg 85%
02:00 +13°C° 0 mm 0 m/S 717 mmHg 85%
03:00 +13°C° 0 mm 0 m/S 717 mmHg 86%
04:00 +14°C° 0 mm 0 m/S 717 mmHg 83%
05:00 +15°C° 0 mm 0 m/S 717 mmHg 80%
06:00 +17°C° 0 mm 0 m/S 717 mmHg 77%
07:00 +19°C° 0 mm 0 m/S 718 mmHg 70%
08:00 +21°C° 0 mm 0 m/S 718 mmHg 63%
09:00 +25°C° 0 mm 1 m/S 718 mmHg 57%
10:00 +27°C° 0 mm 1 m/S 718 mmHg 53%
11:00 +28°C° 0 mm 1 m/S 718 mmHg 50%
12:00 +29°C° 0 mm 1 m/S 717 mmHg 46%
13:00 +29°C° 0 mm 1 m/S 717 mmHg 46%
14:00 +29°C° 0 mm 1 m/S 717 mmHg 47%
15:00 +28°C° 0 mm 1 m/S 717 mmHg 47%
16:00 +27°C° 0 mm 1 m/S 717 mmHg 56%
17:00 +26°C° 0 mm 1 m/S 716 mmHg 65%
18:00 +25°C° 0 mm 1 m/S 716 mmHg 74%
19:00 +23°C° 0 mm 1 m/S 716 mmHg 79%
20:00 +21°C° 0 mm 1 m/S 716 mmHg 84%
21:00 +19°C° 0 mm 1 m/S 716 mmHg 88%
22:00 +19°C° 0 mm 1 m/S 716 mmHg 88%
23:00 +18°C° 0 mm 1 m/S 716 mmHg 88%

10 Juli, Freitag

Zeit Temperatur Niederschläge Wind Luftdruck Luftfeuchtigkeit
00:00 +18°C° 0 mm 1 m/S 716 mmHg 88%
01:00 +18°C° 0 mm 1 m/S 716 mmHg 88%
02:00 +18°C° 0 mm 1 m/S 715 mmHg 87%
03:00 +16°C° 0 mm 1 m/S 715 mmHg 87%
04:00 +18°C° 0 mm 1 m/S 715 mmHg 84%
05:00 +20°C° 0 mm 1 m/S 716 mmHg 82%
06:00 +21°C° 0 mm 1 m/S 716 mmHg 79%
07:00 +23°C° 0 mm 1 m/S 716 mmHg 72%
08:00 +24°C° 0 mm 2 m/S 716 mmHg 65%
09:00 +26°C° 0 mm 2 m/S 716 mmHg 58%
10:00 +27°C° 0 mm 2 m/S 716 mmHg 55%
11:00 +27°C° 0 mm 3 m/S 716 mmHg 53%
12:00 +28°C° 0 mm 3 m/S 716 mmHg 50%
13:00 +28°C° 0.1 mm 3 m/S 716 mmHg 51%
14:00 +28°C° 0.1 mm 3 m/S 716 mmHg 51%
15:00 +28°C° 0.1 mm 3 m/S 716 mmHg 52%
16:00 +26°C° 0.2 mm 3 m/S 716 mmHg 61%
17:00 +25°C° 0.2 mm 2 m/S 716 mmHg 70%
18:00 +23°C° 0.2 mm 2 m/S 716 mmHg 80%
19:00 +21°C° 0.2 mm 1 m/S 716 mmHg 85%
20:00 +20°C° 0.2 mm 1 m/S 717 mmHg 90%
21:00 +16°C° 0.2 mm 0 m/S 717 mmHg 94%
22:00 +16°C° 0 mm 0 m/S 717 mmHg 94%
23:00 +15°C° 0 mm 0 m/S 717 mmHg 95%
Mehr zeigen